GFSNW_sfc_thetae_057.txt.gz
Theta_e
306 306 306 307 307 304 296 290 290 301 303 291 293 287 289 295 292 292 290 290 289 288 290 289 286 285 289 295 294 288 288 286 283 286 292 294 292 287 286 280 277 277 277 279
305 305 306 306 306 303 291 286 293 301 301 286 287 289 291 293 290 289 288 288 289 288 285 284 286 287 293 294 291 289 289 283 280 282 287 290 289 291 289 285 282 276 278 281
304 305 305 306 304 303 291 286 281 290 297 294 288 287 287 287 292 290 290 288 288 286 285 287 285 287 292 293 294 297 293 284 280 277 280 285 285 288 291 289 284 284 282 285
304 304 305 305 303 302 289 283 281 283 279 283 287 288 287 286 287 291 290 287 287 284 282 283 284 286 288 292 296 293 290 280 280 283 284 286 285 286 288 286 287 283 286 285
304 304 304 304 302 298 285 281 281 281 279 280 282 286 287 285 286 288 287 286 288 287 285 284 283 285 285 285 288 290 287 280 281 278 283 284 283 284 285 287 288 288 288 287
305 304 304 303 301 295 283 282 284 282 280 278 283 281 284 287 289 292 291 288 287 287 288 289 289 289 287 287 286 284 284 280 276 275 281 281 278 283 284 285 287 288 285 290
305 304 304 302 301 294 286 284 282 280 278 279 280 281 284 284 286 286 290 290 289 289 289 291 290 288 287 288 286 287 282 280 280 273 277 270 281 284 286 285 286 288 289 291
305 304 304 302 301 299 287 285 283 280 277 279 280 280 280 282 283 285 291 290 288 287 291 288 284 283 284 285 286 286 285 282 277 274 273 278 281 285 284 283 284 287 287 289
304 303 303 303 302 299 289 286 285 283 280 278 281 279 279 276 276 282 289 292 290 293 289 285 279 276 279 279 284 289 288 286 281 278 273 272 280 287 289 288 281 289 289 290
304 303 303 303 301 300 291 289 287 284 280 280 280 278 278 280 277 276 280 283 286 292 285 284 281 278 280 278 278 280 283 284 278 278 276 280 285 287 289 279 282 290 292 292
304 303 303 303 302 300 292 291 290 284 281 281 284 284 279 280 279 276 279 284 286 288 285 283 283 281 279 277 278 279 280 278 278 280 277 274 287 288 284 287 291 292 292 293
304 304 303 303 302 300 296 287 292 290 284 283 286 286 286 286 285 281 279 283 286 284 286 285 287 284 284 278 276 280 279 282 280 281 281 286 287 287 288 289 288 290 290 293
304 304 303 303 301 300 295 288 288 286 282 281 282 281 286 289 287 288 279 281 285 286 285 284 285 284 287 281 282 279 282 284 283 283 285 285 287 288 287 285 285 289 292 293
304 304 304 303 301 299 295 288 288 286 282 278 280 287 284 288 289 289 287 286 286 284 282 281 280 280 282 283 281 280 283 285 282 282 284 285 286 286 285 286 286 290 292 291
304 304 303 302 300 298 292 289 288 288 284 279 280 283 285 286 287 287 288 287 284 280 277 275 278 282 281 281 279 278 282 280 279 278 283 283 283 285 286 285 285 289 288 289
303 303 302 301 299 295 288 283 288 289 286 280 275 282 281 285 286 285 285 285 283 281 280 278 280 283 281 278 277 281 281 282 282 282 285 286 286 286 285 283 287 288 289 289
303 302 301 300 298 290 285 283 287 292 286 280 272 273 282 284 284 282 282 282 281 280 279 280 279 280 282 280 277 281 283 286 288 288 287 284 286 286 289 289 289 290 290 290
302 302 300 299 298 293 286 290 294 288 281 278 267 269 276 284 281 283 284 280 280 280 279 280 279 280 279 276 280 284 287 287 287 287 287 287 289 290 289 290 289 288 288 289
302 300 299 289 285 282 285 296 292 287 283 272 271 270 266 282 280 286 284 281 277 281 278 278 280 278 275 282 283 285 286 285 285 287 287 288 287 287 287 287 288 288 290 289
301 291 285 282 284 295 295 286 282 280 279 278 273 280 270 277 277 278 281 280 277 269 278 280 279 277 283 283 285 287 287 287 286 283 283 285 285 285 283 285 288 289 289 289
288 284 283 287 293 285 281 274 274 276 272 276 276 275 273 281 274 276 282 280 274 265 274 276 273 276 281 284 284 285 285 287 286 286 287 286 286 284 284 286 287 286 286 286
289 287 288 284 280 275 273 266 273 273 271 277 276 278 280 280 284 282 284 277 279 269 277 272 269 277 280 281 283 284 284 285 286 286 286 285 286 286 284 284 283 283 284 285
287 283 278 277 273 269 268 267 267 268 273 276 274 271 278 280 284 279 281 277 275 281 277 272 274 278 283 282 281 282 284 284 285 285 285 285 285 285 284 282 282 282 282 282
281 277 271 270 269 269 269 271 271 275 277 278 277 272 277 281 279 281 276 278 283 277 269 268 270 275 280 281 282 282 280 282 282 282 282 283 283 282 283 282 280 280 281 281
277 277 270 269 274 273 271 273 274 279 281 278 276 273 277 272 276 281 277 274 275 271 269 270 273 274 277 278 279 279 279 278 278 280 281 281 282 283 282 283 281 280 281 281
276 273 273 276 272 273 277 274 272 276 278 279 275 269 268 270 273 274 271 269 266 271 269 274 279 276 277 277 278 278 279 278 280 280 280 284 282 283 282 282 281 279 280 280
274 272 279 274 273 273 274 277 278 279 278 272 270 267 269 275 274 273 276 274 272 272 277 281 281 277 277 277 277 278 278 279 279 279 283 283 284 282 281 281 281 280 280 280

GFSNW_sfc_thetae_060.txt.gz
Theta_e
307 306 306 306 306 304 303 301 293 305 305 294 294 290 291 295 295 296 294 295 292 290 291 289 288 289 292 298 295 289 293 292 286 288 294 297 295 293 293 286 284 286 285 286
306 306 305 305 304 304 300 297 295 303 303 290 290 291 292 294 294 293 292 292 292 292 291 288 290 291 296 297 295 292 294 289 283 284 289 293 292 294 293 291 290 285 283 287
306 305 305 304 303 304 301 296 289 294 298 296 290 290 290 291 296 294 293 292 293 291 290 291 289 290 294 297 297 297 297 289 287 284 287 291 288 291 293 291 286 286 287 289
306 305 304 303 302 304 299 293 291 292 288 290 292 292 291 290 290 295 295 292 291 290 288 289 289 291 292 295 296 296 295 287 286 287 289 290 289 290 291 289 290 286 289 290
306 305 304 302 302 301 293 289 290 289 287 287 290 291 289 288 289 292 291 291 292 292 289 289 288 291 292 292 294 294 293 286 286 284 287 287 286 289 291 291 291 291 291 290
306 305 304 302 302 298 293 291 292 292 284 287 290 287 287 287 290 294 295 293 292 292 292 293 295 295 293 294 293 291 291 288 286 283 284 285 282 286 288 289 292 292 287 292
306 304 303 302 300 297 295 292 293 290 284 287 286 285 287 288 288 288 294 294 293 292 294 295 295 294 293 293 292 293 289 288 287 283 283 278 285 289 290 289 290 292 293 294
305 304 303 302 300 297 295 292 291 290 283 286 284 284 284 286 288 288 290 293 292 294 295 292 289 289 289 289 291 291 292 289 284 282 282 284 287 289 289 288 290 293 293 296
305 304 303 302 301 298 295 292 292 292 286 284 285 284 283 284 285 289 290 293 292 298 295 291 284 283 285 285 287 291 290 291 288 284 279 277 287 292 294 293 286 294 295 295
304 304 303 303 302 299 297 294 293 293 286 287 285 285 285 285 284 286 286 285 291 297 293 288 286 284 286 284 283 285 287 287 284 284 282 285 290 292 293 284 286 293 294 295
304 304 304 302 301 300 297 294 295 293 287 287 288 288 285 285 285 286 284 288 290 289 289 289 288 287 286 286 286 286 285 284 284 285 282 279 292 293 288 289 291 291 291 292
304 304 304 303 301 300 297 292 296 295 291 288 291 291 291 290 289 287 286 287 287 287 286 289 288 286 288 286 283 287 284 287 286 287 287 291 292 292 292 289 288 289 288 291
304 304 304 303 302 300 297 294 294 295 289 287 288 286 290 292 292 293 286 288 288 288 290 289 289 285 287 285 286 287 288 291 288 288 289 288 289 292 291 291 289 290 290 291
304 304 304 302 301 299 297 295 293 293 291 285 285 291 289 292 294 293 291 290 290 290 290 288 288 287 287 287 286 287 287 288 284 286 288 288 290 292 290 290 290 289 290 292
304 304 303 301 300 298 295 294 294 293 291 286 285 288 289 291 292 291 292 290 289 288 287 286 285 287 287 286 285 284 286 283 282 282 287 285 287 289 291 289 289 290 290 290
304 304 302 300 298 294 293 290 294 294 291 289 283 287 288 289 290 289 289 289 288 288 286 284 285 286 285 282 281 285 286 286 287 285 288 287 289 290 290 288 289 290 290 291
304 302 300 299 298 296 290 289 292 294 292 288 282 283 286 289 288 288 288 288 288 287 286 284 284 284 285 283 281 284 287 288 289 289 288 285 287 286 289 290 291 291 290 290
303 301 300 299 297 295 291 294 294 292 288 287 281 279 284 288 286 284 288 286 287 286 285 285 283 284 284 279 284 286 288 289 288 288 288 287 288 289 289 289 289 287 288 290
301 300 298 293 290 289 290 294 293 292 290 282 281 280 278 287 286 288 286 286 282 285 283 283 284 282 280 285 286 286 287 286 286 288 287 287 287 287 287 286 286 287 288 289
300 293 288 286 288 295 296 290 288 288 287 286 279 282 280 284 284 284 283 284 282 279 282 285 281 282 287 287 288 288 288 287 287 283 283 284 284 285 285 284 285 287 287 287
291 287 285 289 294 289 285 282 283 282 281 283 281 282 281 286 282 282 285 281 281 278 280 281 281 281 286 288 288 289 289 288 288 287 286 286 285 284 284 284 285 285 284 285
291 290 290 287 283 280 278 273 279 280 280 282 282 283 284 284 287 283 284 280 281 277 282 279 277 284 286 287 287 288 288 288 287 288 286 286 285 285 285 284 284 283 284 285
290 286 282 283 277 274 277 272 275 278 280 281 281 280 283 284 285 282 282 278 278 283 279 278 282 285 287 287 286 285 286 286 286 285 286 286 286 286 286 284 285 282 283 284
285 282 275 279 277 277 277 279 280 280 281 280 281 280 281 282 280 281 277 281 283 278 276 277 283 284 285 284 284 283 283 283 283 283 283 283 285 285 286 285 284 282 282 283
282 282 275 276 276 277 276 277 280 281 282 281 280 280 282 279 279 281 280 277 275 278 278 281 284 283 283 283 283 282 282 282 281 282 282 282 283 284 284 286 285 283 281 282
281 278 276 277 278 276 279 277 278 282 281 281 281 277 276 277 278 277 275 274 273 278 280 284 283 283 282 283 283 282 282 281 282 282 282 282 284 284 285 285 285 283 281 281
280 277 281 280 281 280 279 281 280 282 282 280 278 274 274 278 275 274 278 276 281 283 283 283 284 284 283 284 283 282 281 281 281 281 281 281 284 285 284 283 284 283 282 281

GFSNW_sfc_thetae_063.txt.gz
Theta_e
309 308 307 307 307 306 304 303 293 306 308 295 296 293 293 296 296 298 295 296 294 291 292 289 290 289 292 299 297 293 295 292 285 288 295 298 296 293 293 286 285 287 286 287
308 308 307 307 307 307 305 299 296 307 305 290 292 294 294 296 295 294 294 294 295 294 292 289 291 293 296 299 296 293 295 290 284 285 291 295 293 295 295 294 292 287 284 287
308 307 307 307 306 307 304 299 289 297 299 298 293 293 292 292 297 295 295 294 295 293 292 294 291 292 296 298 298 297 297 292 289 285 288 293 289 292 294 293 287 287 288 289
308 307 306 306 305 306 304 299 295 297 288 293 294 295 294 292 291 296 296 293 293 292 290 291 291 293 294 297 297 298 297 289 288 289 291 292 291 291 292 290 291 287 290 290
307 306 306 305 304 305 299 293 293 295 295 294 294 293 293 292 292 294 292 292 294 294 291 292 290 293 293 293 297 296 295 287 289 286 289 289 287 291 292 292 292 292 292 291
307 306 305 304 305 303 297 296 297 296 290 292 292 292 293 292 294 296 297 295 295 293 293 296 296 297 296 297 295 294 293 289 287 285 287 286 283 288 289 291 293 292 288 293
307 305 304 303 305 302 300 299 298 293 288 292 292 290 292 290 292 292 295 296 295 294 298 298 297 297 296 296 295 296 292 291 289 285 285 278 286 291 291 289 291 293 293 295
306 305 303 302 303 301 299 298 296 294 289 292 288 289 289 292 291 292 294 295 295 299 297 293 290 290 291 291 293 293 295 292 287 284 283 286 288 290 290 289 289 295 294 295
305 304 303 302 301 300 299 298 298 297 290 288 290 288 290 290 292 292 293 296 298 300 297 292 285 283 287 285 288 293 292 293 288 285 280 278 288 292 295 294 286 293 294 294
305 304 303 302 301 300 300 296 297 297 289 289 289 288 288 289 290 292 292 291 295 300 294 289 286 285 289 284 284 286 287 288 285 284 282 286 291 293 295 284 286 292 292 292
305 304 304 303 301 301 300 296 298 297 290 289 290 290 288 288 289 289 288 291 293 293 290 289 289 288 288 287 289 287 286 285 284 285 282 279 293 294 288 290 292 291 291 291
304 304 303 302 301 300 300 294 298 299 293 289 293 292 292 292 291 290 291 290 290 292 289 291 290 287 290 288 283 290 285 289 287 288 287 293 293 293 293 292 291 291 291 291
305 304 303 302 302 299 300 297 298 296 291 290 291 288 293 295 294 295 289 291 291 290 292 292 290 285 289 286 287 288 290 292 289 289 291 292 291 294 293 293 291 292 292 291
305 304 303 302 301 300 299 297 297 298 294 287 286 293 290 294 296 294 294 292 292 292 293 291 291 288 290 289 288 288 290 289 287 287 290 290 292 294 293 292 292 292 293 292
305 304 303 301 300 300 299 297 296 297 296 287 286 291 291 293 294 293 293 292 291 291 290 290 288 290 289 288 287 286 290 287 284 284 289 288 289 291 292 290 290 291 290 290
304 302 301 300 300 300 298 293 296 296 298 291 284 290 290 291 292 291 290 291 290 290 289 287 288 288 288 284 283 287 289 288 289 287 290 289 290 291 291 289 289 290 290 290
303 300 299 299 300 298 292 292 294 295 297 291 284 284 289 291 290 291 290 291 290 290 288 287 287 286 287 285 282 287 288 289 291 291 290 287 289 287 290 289 290 291 290 291
301 300 299 299 299 297 293 295 294 296 293 293 285 282 285 290 287 286 290 288 289 288 287 287 285 286 285 281 287 288 289 289 289 290 290 289 289 289 288 289 289 287 287 288
301 299 298 297 293 292 292 294 295 297 295 287 287 283 281 289 288 288 288 289 285 287 286 285 285 285 281 286 288 287 287 287 286 288 287 287 286 286 287 286 286 284 285 287
299 295 292 289 290 296 296 294 292 292 291 290 283 286 282 288 287 284 285 286 285 282 285 286 283 284 290 289 289 289 288 288 288 284 283 284 284 284 284 285 286 285 285 285
292 289 286 290 295 292 289 286 287 286 285 287 285 286 283 288 284 283 286 282 283 280 283 282 283 283 287 290 289 289 289 289 288 288 288 288 287 285 284 285 286 286 286 284
293 291 292 291 287 285 284 279 282 284 283 285 285 284 286 285 288 284 285 281 281 279 284 280 278 286 288 288 288 287 287 287 287 287 286 287 286 287 286 285 285 285 285 283
292 290 286 287 281 280 282 276 279 281 284 283 284 282 285 285 285 283 282 279 279 285 279 279 283 286 286 286 287 286 286 286 285 285 285 285 285 286 286 286 287 286 286 286
290 286 279 283 279 283 284 286 285 284 286 285 285 283 283 283 282 282 279 282 283 278 276 278 284 285 286 286 286 285 284 284 284 283 283 283 283 283 286 287 288 287 285 285
285 287 280 279 279 280 280 283 283 284 287 285 283 283 285 281 280 282 281 278 276 279 279 283 286 286 285 284 285 285 285 284 283 283 283 282 282 283 284 287 287 287 286 284
285 281 278 280 281 279 282 283 281 285 285 286 286 281 280 278 280 278 277 276 275 281 284 286 285 285 285 285 284 284 284 284 283 283 283 283 282 282 283 285 285 286 286 284
284 280 284 284 285 283 283 285 284 286 285 283 283 279 277 280 277 276 280 278 283 286 286 286 286 285 284 284 284 284 283 283 283 283 282 281 282 282 282 281 284 285 286 284

GFSNW_sfc_thetae_069.txt.gz
Theta_e
309 311 313 310 310 309 305 298 288 304 303 290 292 288 292 296 295 296 295 296 293 289 290 288 287 286 290 295 294 289 291 287 282 283 293 293 292 290 290 282 281 281 278 280
309 314 312 309 309 309 300 294 294 304 301 282 288 293 293 296 294 293 294 293 293 296 290 287 290 289 297 296 295 289 291 282 280 280 286 290 289 291 292 288 286 280 277 280
309 312 311 309 310 310 302 292 287 295 296 292 287 288 290 291 295 293 294 292 292 290 289 293 289 290 295 296 296 299 295 287 280 276 280 287 285 290 291 287 277 282 283 283
313 311 310 309 309 310 300 293 287 290 286 286 288 289 291 291 289 294 293 290 291 291 288 290 289 291 293 295 297 294 292 281 281 286 288 288 287 288 289 285 286 281 285 285
310 310 309 309 309 309 296 290 288 290 287 289 288 289 289 291 291 292 289 289 291 291 289 287 287 291 292 290 292 291 291 281 282 279 287 286 283 287 287 289 289 289 288 287
312 309 308 308 309 305 294 292 291 290 289 286 286 287 289 293 293 294 294 293 290 289 290 290 290 292 293 292 291 290 288 281 277 276 282 281 277 283 286 287 288 288 285 288
311 308 307 308 309 304 295 292 291 287 284 285 287 290 292 292 290 290 292 292 291 291 294 293 292 291 291 291 289 293 288 284 280 274 278 270 281 286 288 288 289 289 289 290
310 308 307 308 308 307 295 293 291 286 283 285 288 290 289 289 290 290 291 291 292 294 292 287 284 284 285 287 289 288 291 287 279 276 274 280 283 286 286 285 284 288 288 288
308 308 307 307 307 308 295 292 293 289 285 281 285 287 288 285 286 287 290 293 295 295 291 287 279 278 282 281 283 289 289 288 281 278 274 274 283 288 291 290 282 288 288 286
307 306 306 305 307 306 296 292 293 288 282 284 285 284 285 287 286 285 288 289 291 294 287 283 280 278 284 279 279 280 282 282 278 278 275 280 287 289 290 278 278 287 287 286
307 306 305 305 306 305 296 292 294 289 283 284 287 287 284 284 284 284 285 287 288 287 284 283 282 280 281 281 283 282 281 278 278 279 276 274 287 288 283 284 286 288 288 287
305 304 304 304 306 302 298 291 295 293 286 284 289 289 289 289 287 286 287 286 286 287 284 284 283 281 282 281 277 283 281 283 281 281 281 286 288 286 286 287 285 286 285 287
304 303 303 304 304 303 298 292 292 290 285 283 284 284 288 292 291 291 285 286 289 287 287 285 284 282 284 279 280 280 283 286 283 285 285 285 285 286 287 287 286 287 287 287
304 304 303 303 303 302 298 292 293 291 287 280 282 290 287 292 292 291 291 289 289 288 287 283 283 282 285 282 283 282 285 285 282 282 282 284 285 286 286 287 288 288 288 288
305 304 303 302 303 301 295 292 293 293 288 280 281 287 289 290 290 290 290 289 286 284 282 279 280 282 283 282 281 280 284 283 280 279 283 282 283 285 287 285 286 287 287 288
304 303 302 302 301 299 294 287 292 294 292 283 277 287 286 288 288 287 287 287 285 284 282 280 281 284 280 277 277 282 283 284 285 282 285 285 285 286 285 285 286 287 287 286
304 303 302 302 299 292 290 287 290 295 293 283 277 276 286 288 287 285 285 286 284 283 281 281 280 280 279 278 276 282 283 285 285 286 284 283 284 282 284 284 285 286 285 285
303 302 301 300 299 295 288 291 295 295 289 284 274 277 279 286 282 281 285 282 283 282 281 281 279 280 279 276 281 282 284 284 283 283 283 283 283 282 282 283 283 282 282 283
302 301 301 295 291 288 288 295 296 292 286 279 276 272 270 284 285 284 283 282 280 282 280 280 281 279 274 280 282 282 283 282 282 283 282 282 282 282 282 282 281 280 281 282
302 296 290 286 288 296 296 291 285 284 283 282 275 276 276 285 284 283 283 283 281 273 280 281 279 278 282 282 283 283 284 284 283 275 278 279 278 280 280 281 282 281 282 282
291 286 285 290 296 289 286 280 277 280 277 278 276 276 278 283 279 281 284 281 282 277 278 276 279 280 282 282 281 282 281 282 282 282 281 281 281 278 279 280 281 282 281 281
291 290 291 289 285 280 276 271 279 279 276 279 278 280 280 281 283 279 281 279 280 277 281 278 276 281 284 283 281 280 281 281 282 282 281 281 281 281 280 279 278 279 280 281
291 286 281 279 274 271 270 271 274 272 277 278 278 274 279 281 284 282 281 276 277 282 278 276 279 282 283 281 279 280 281 282 282 282 282 281 281 281 280 279 280 281 280 282
284 278 273 272 269 273 278 278 276 278 279 280 279 277 278 281 279 281 267 279 280 269 266 268 276 282 280 281 281 280 279 280 280 278 277 277 278 279 280 280 280 279 279 280
276 276 271 270 277 277 278 278 280 279 281 280 278 277 278 277 273 277 274 273 263 269 269 276 275 278 278 279 280 279 278 275 275 276 275 276 276 276 278 279 278 278 278 279
276 274 274 278 275 273 277 279 280 280 281 278 279 275 271 272 272 270 266 266 265 270 271 276 276 276 278 278 279 279 279 278 278 277 277 277 275 276 277 277 277 277 278 278
276 276 280 278 277 276 277 279 280 281 280 275 275 270 271 275 269 270 270 268 271 274 274 275 278 278 278 278 278 278 278 278 278 276 276 276 277 273 272 272 277 276 278 278

GFSNW_sfc_thetae_072.txt.gz
Theta_e
305 305 307 309 311 308 306 298 289 303 303 291 292 286 292 295 295 295 295 295 291 285 287 286 284 284 288 294 292 287 290 285 281 283 291 292 291 288 286 277 277 278 277 279
305 305 307 310 309 309 301 294 294 304 301 285 287 292 291 295 293 293 294 294 294 294 289 285 286 288 294 295 292 288 289 281 273 278 284 289 288 290 290 287 283 278 276 279
305 305 306 311 311 310 303 293 287 295 297 293 289 290 289 291 296 292 294 292 293 290 289 290 286 287 295 295 294 298 295 285 279 276 279 285 283 288 289 286 277 281 282 282
304 305 307 311 310 310 303 293 287 291 285 287 288 289 290 289 288 292 292 289 290 290 287 289 288 291 292 294 296 293 290 280 279 284 286 287 286 286 288 283 284 279 284 284
304 305 307 310 309 310 298 291 287 288 285 287 288 290 288 289 290 290 288 288 290 290 287 287 286 291 291 287 289 289 289 278 281 278 285 284 283 285 286 288 287 286 287 286
304 305 309 308 308 308 296 293 291 290 287 284 287 287 288 292 292 292 292 291 289 288 288 289 290 293 291 291 290 288 286 281 277 275 281 281 278 282 284 286 287 288 285 288
305 308 309 308 308 305 295 292 290 287 283 285 287 289 291 291 290 289 290 291 289 290 293 292 291 292 290 290 289 291 285 282 279 273 277 270 281 286 287 286 287 287 288 289
309 309 308 307 308 305 295 293 290 286 282 285 288 289 289 291 289 289 289 290 291 293 291 286 284 283 284 286 289 290 289 285 278 275 273 278 282 285 284 284 283 286 285 285
309 308 306 307 308 307 295 292 292 288 285 280 284 286 286 285 284 286 289 292 294 294 290 285 278 277 280 279 281 287 288 287 281 278 274 274 282 286 289 288 280 284 285 284
309 307 306 307 307 306 296 292 292 287 281 282 284 285 285 287 285 284 286 288 290 292 285 283 279 277 283 278 279 280 281 283 278 277 274 279 285 287 289 277 278 285 285 285
308 307 306 305 306 303 296 291 293 288 282 283 286 286 283 284 285 284 285 287 288 287 284 282 281 279 281 279 281 280 280 277 277 278 277 275 286 287 283 283 285 286 285 286
306 305 304 305 306 303 298 288 293 292 285 284 288 287 288 288 287 286 285 285 285 287 284 283 282 281 280 279 277 282 279 282 280 281 281 284 284 284 285 286 285 284 284 286
305 304 303 305 305 302 298 291 290 288 283 283 284 283 288 291 290 290 285 285 288 286 286 284 283 282 282 278 279 279 281 284 282 283 283 282 284 285 286 286 284 285 286 286
304 304 304 305 303 302 297 292 291 289 285 280 282 290 287 291 291 290 290 289 288 288 286 282 282 282 283 281 282 281 283 284 282 280 281 282 283 284 284 285 286 286 286 287
304 303 304 304 302 301 295 293 292 292 286 280 281 286 288 289 289 289 289 288 286 284 282 279 279 281 282 280 280 279 283 282 280 280 282 282 282 285 285 283 284 285 285 285
304 303 302 303 302 298 291 288 292 294 291 282 278 286 286 288 288 287 286 286 285 283 282 279 280 282 280 277 276 281 282 283 284 282 283 284 284 285 284 283 284 285 284 284
303 302 303 302 299 293 289 287 290 295 291 283 278 279 285 287 286 285 284 285 283 282 281 280 279 280 279 278 276 281 282 284 284 284 283 282 283 281 282 282 284 284 284 284
303 302 301 300 299 295 288 290 296 294 287 283 275 279 279 285 281 281 283 281 282 281 280 280 279 280 279 276 280 281 282 282 281 281 282 282 281 281 282 282 282 281 280 281
302 301 300 293 290 285 287 296 296 291 287 278 274 273 273 283 282 282 282 282 279 282 279 280 280 278 274 280 281 281 282 281 281 281 281 280 280 280 280 279 280 279 279 280
302 295 289 285 286 297 296 290 284 282 281 280 272 276 276 280 280 281 278 282 277 269 279 280 279 278 281 281 281 282 282 281 281 275 276 278 276 278 278 278 279 279 279 280
290 287 285 289 295 288 285 278 276 278 274 277 274 275 278 283 277 280 282 280 281 277 279 276 274 279 280 282 280 281 280 280 279 280 281 279 279 277 278 279 280 280 279 278
291 290 291 289 284 281 278 275 277 275 273 278 277 279 280 281 283 278 280 276 280 272 281 278 275 277 280 280 280 280 280 279 280 281 280 280 281 280 279 278 277 277 277 277
291 285 282 281 276 271 270 269 270 274 277 276 277 275 278 280 281 280 280 271 272 281 277 274 275 279 281 280 278 279 280 279 280 280 280 280 279 280 279 278 279 278 278 279
283 277 273 275 273 273 275 276 274 277 278 279 277 276 277 279 276 278 269 278 278 268 264 268 272 279 279 279 279 279 277 279 279 276 275 276 277 278 279 279 278 277 276 278
280 277 276 270 278 279 275 272 277 277 281 278 276 276 277 273 273 277 275 273 265 269 269 272 274 277 277 277 278 278 277 274 272 273 272 272 274 275 277 278 277 276 277 277
278 273 272 278 276 275 275 276 277 278 279 277 278 273 270 271 273 270 267 267 267 270 271 275 276 276 277 277 278 278 277 277 277 275 274 275 274 275 276 276 276 276 276 277
274 273 279 278 272 272 275 279 279 281 278 273 273 269 270 274 269 270 270 270 271 273 274 274 277 277 277 277 278 278 278 277 276 275 275 274 275 271 271 272 276 275 277 276

GFSNW_sfc_thetae_075.txt.gz
Theta_e
305 305 305 306 306 308 306 299 289 302 302 290 287 280 288 294 293 293 293 292 288 284 285 286 282 283 286 293 291 286 288 284 282 284 289 291 289 286 283 277 277 277 275 277
305 305 305 305 306 309 302 294 294 303 301 283 282 289 289 294 293 293 292 291 292 290 287 283 285 286 293 294 291 286 287 281 272 278 283 287 286 288 287 284 281 276 274 278
305 305 305 305 306 309 303 294 286 295 297 290 284 287 289 291 296 293 292 290 291 290 287 288 285 286 292 294 292 298 293 283 279 275 279 283 283 286 287 284 275 279 279 281
305 304 305 305 306 309 303 294 288 291 286 287 286 290 291 290 289 293 291 288 289 288 286 286 285 288 289 292 295 291 288 280 279 283 285 285 284 285 286 281 282 279 282 282
305 306 305 305 307 309 300 291 288 289 284 287 287 290 289 289 290 288 287 287 289 289 286 285 285 289 287 285 289 287 287 277 280 277 283 283 283 284 286 286 285 285 285 284
305 305 306 307 309 308 298 295 294 288 288 283 288 288 288 290 290 290 291 290 288 287 287 288 288 292 291 289 287 287 285 280 276 275 280 280 277 280 283 285 287 287 283 287
307 309 308 311 309 303 298 294 291 286 283 283 289 290 290 291 289 288 289 290 288 290 292 291 293 292 289 289 288 290 284 281 278 272 277 270 280 284 285 285 285 286 287 287
309 308 310 309 306 303 296 293 289 286 281 284 289 290 290 291 289 288 288 289 290 292 290 286 284 283 284 285 288 288 288 283 278 273 272 278 280 284 284 283 282 284 285 284
309 308 309 310 307 303 295 292 290 287 285 281 282 286 290 288 286 285 288 292 293 292 288 284 278 276 278 279 282 289 288 285 280 278 273 273 280 285 288 287 279 284 285 284
308 308 308 308 308 302 296 292 291 286 281 281 283 284 287 288 286 283 285 287 289 290 284 282 279 276 282 278 278 278 283 284 281 278 274 278 283 286 287 277 278 284 284 284
308 307 307 307 306 302 297 291 291 287 282 283 285 286 283 285 286 284 286 287 288 286 283 282 281 279 280 278 279 279 280 277 277 279 278 274 285 286 281 282 283 285 284 284
307 306 305 305 305 302 298 289 292 291 285 283 287 286 287 287 286 286 284 284 285 286 283 282 282 281 279 278 276 280 279 281 280 280 280 283 283 283 284 285 284 283 283 284
306 304 303 304 306 302 298 290 289 287 283 283 283 283 288 290 289 290 285 285 287 286 285 283 282 282 282 278 278 277 280 283 281 282 281 281 282 284 284 285 284 284 285 285
304 303 303 305 303 301 298 291 291 288 285 280 281 289 286 290 289 290 289 288 288 287 285 282 282 282 283 280 281 280 282 283 281 280 279 280 283 283 283 284 285 284 285 285
304 303 304 303 302 300 296 292 291 290 286 280 281 285 287 288 288 288 289 288 286 284 282 279 279 281 281 279 280 278 281 281 280 279 282 281 281 284 285 282 282 283 283 283
303 304 304 303 302 298 291 288 291 292 289 282 278 285 285 287 287 286 286 286 284 282 282 279 280 282 280 277 277 280 280 282 283 281 282 283 283 284 283 281 282 283 283 283
303 302 303 301 299 292 288 287 290 294 289 282 278 278 284 286 284 284 284 284 282 282 280 280 279 279 279 278 276 280 281 282 281 281 282 281 281 280 281 280 282 283 281 282
302 303 302 300 299 295 287 290 297 292 285 282 276 278 279 285 281 281 283 282 282 281 280 280 279 279 278 276 279 280 282 281 280 280 281 280 280 280 280 280 280 279 279 279
303 301 300 292 289 285 286 296 295 291 287 278 275 274 273 283 281 282 282 282 279 281 279 279 280 278 274 279 279 280 281 281 280 281 280 279 278 278 279 278 278 277 278 278
302 294 289 283 286 296 295 288 283 282 282 280 276 279 276 279 278 278 278 281 278 270 278 280 278 277 281 280 281 282 282 282 281 275 275 277 275 277 277 278 278 278 278 278
290 286 284 287 295 287 283 278 277 278 275 279 276 276 277 282 275 277 281 276 279 270 275 275 271 274 279 280 280 280 280 279 278 279 279 278 278 276 277 278 279 279 278 277
291 290 291 287 283 278 275 270 276 277 275 277 277 278 280 280 282 278 278 275 278 270 280 273 270 277 279 280 279 279 278 278 279 279 279 279 280 278 278 277 276 276 277 276
290 286 282 281 276 270 268 268 270 271 277 278 277 276 278 280 281 277 274 270 271 281 277 271 274 278 280 279 277 279 279 279 279 279 279 279 278 279 278 277 278 277 277 277
284 278 276 277 270 271 272 275 276 279 279 277 277 277 277 279 275 276 269 278 276 270 265 268 272 278 280 279 279 278 276 278 278 276 275 276 277 277 278 278 277 276 276 278
281 278 275 270 277 278 277 274 277 277 280 277 276 275 277 274 274 277 276 274 265 270 270 273 274 276 277 278 278 277 277 273 273 272 271 271 272 274 275 277 276 276 276 276
277 272 272 277 276 277 274 270 273 276 278 277 278 273 272 271 273 270 267 269 268 271 271 275 276 275 277 277 277 277 277 276 276 274 273 274 273 274 274 273 274 275 275 275
274 274 279 279 277 276 276 278 278 279 277 273 273 270 271 274 269 269 269 269 271 272 273 274 277 277 276 276 277 278 278 276 275 274 275 274 273 268 270 271 275 274 276 275

GFSNW_sfc_thetae_078.txt.gz
Theta_e
305 305 306 306 306 305 305 298 287 302 304 290 291 284 285 293 291 293 292 290 287 283 284 284 281 281 285 292 290 285 287 283 283 284 288 289 287 285 282 278 277 276 275 278
305 306 306 306 305 306 301 292 293 302 301 285 286 286 288 292 291 291 291 290 289 288 285 282 283 285 292 293 290 285 287 280 272 277 282 287 285 287 285 282 280 276 273 278
306 306 306 305 306 307 303 293 286 293 296 292 283 283 286 289 293 291 292 289 291 288 285 287 283 285 292 293 292 297 291 282 279 274 278 283 283 284 285 282 274 278 278 279
306 305 306 306 306 307 301 293 288 291 285 288 283 286 288 288 287 291 290 287 288 287 284 284 283 286 289 292 294 289 287 279 278 281 284 285 284 284 284 280 281 278 281 282
307 305 305 305 306 307 298 291 289 290 286 288 285 289 289 289 288 288 286 287 288 288 285 283 284 287 285 284 289 286 286 277 279 277 282 282 283 284 284 284 284 283 283 281
307 307 307 307 307 307 298 294 295 290 288 286 284 288 290 291 290 290 289 289 287 286 287 288 288 289 289 288 285 285 283 279 276 274 279 280 277 280 283 284 284 284 282 285
311 310 310 309 307 305 298 294 292 288 283 283 285 290 292 290 288 288 288 289 288 289 291 289 291 291 288 288 287 288 283 280 277 272 277 270 280 283 284 284 284 285 285 285
310 310 310 308 309 304 296 294 290 285 281 283 289 291 290 288 287 287 287 289 289 291 288 285 283 282 283 284 287 287 286 282 277 273 271 277 279 282 283 282 282 284 284 283
309 308 307 306 305 302 295 290 290 286 284 283 283 288 290 287 283 284 288 292 292 291 286 283 277 276 278 278 281 288 287 285 280 277 273 272 278 284 287 286 278 283 284 283
309 309 308 306 304 303 296 289 289 286 280 281 285 286 287 288 287 283 284 286 288 289 283 281 278 276 279 277 277 277 281 283 281 280 273 278 282 286 286 276 278 283 283 283
308 308 307 306 305 304 295 289 289 286 281 283 285 286 286 287 288 285 285 286 287 286 282 281 280 278 279 276 277 277 279 276 276 280 278 273 283 285 280 282 282 284 283 283
306 306 306 306 304 304 298 288 291 290 284 283 286 286 289 286 285 285 284 284 285 286 283 281 281 281 278 277 276 279 278 281 279 280 279 282 281 282 283 284 284 282 282 283
306 305 305 305 304 303 296 288 288 287 283 282 283 282 288 289 288 289 285 285 287 286 285 283 282 281 281 277 278 276 279 282 281 281 280 280 281 282 283 283 283 283 283 283
305 303 305 306 304 302 297 290 289 287 284 280 281 288 285 289 289 289 289 288 288 286 284 281 282 282 281 279 280 280 282 282 280 280 280 280 283 283 283 283 283 283 283 283
303 304 304 303 302 301 294 291 290 289 286 280 280 284 287 288 288 288 288 288 286 283 282 278 279 281 280 278 279 278 281 281 280 280 282 281 281 283 284 282 281 282 281 282
303 304 304 302 300 298 291 286 290 291 289 283 277 283 283 286 286 285 285 285 284 282 282 279 279 281 279 277 277 280 280 281 282 281 281 282 282 283 282 280 281 280 281 281
303 303 302 301 299 294 288 286 289 294 289 282 275 276 284 284 284 283 283 283 282 282 280 280 279 279 278 278 276 279 280 281 281 281 281 279 281 279 281 279 280 282 280 280
303 303 301 300 299 295 289 290 297 291 285 283 275 276 278 284 281 281 283 281 282 281 279 279 278 279 278 276 279 279 281 281 280 279 280 279 280 279 278 278 279 278 278 278
303 302 299 293 289 286 286 297 294 289 285 276 276 273 271 283 282 282 282 282 279 282 279 279 279 277 275 279 279 279 281 280 280 281 279 278 277 277 277 276 276 276 277 277
302 293 288 284 286 296 294 288 284 283 283 281 273 276 274 279 279 279 278 280 278 272 279 279 278 277 281 280 280 281 282 282 281 274 274 276 274 277 276 276 277 277 277 278
290 285 283 287 294 287 283 278 276 278 275 280 278 276 277 283 277 277 280 274 276 270 276 275 271 273 278 280 280 280 280 280 278 278 279 278 277 275 276 277 278 278 278 277
291 289 290 287 282 278 275 271 276 275 274 277 276 278 280 280 281 278 278 273 273 271 278 271 268 275 278 278 279 278 278 277 278 278 279 279 279 277 277 276 275 275 276 276
290 286 282 280 276 271 269 269 269 273 277 279 279 276 278 279 280 277 273 269 271 279 276 268 272 277 280 278 276 278 278 278 279 279 279 279 277 278 277 276 276 276 275 276
284 279 275 274 269 272 274 274 276 278 279 278 277 277 277 279 275 275 268 278 277 269 264 267 271 276 279 278 279 278 276 277 278 276 275 276 278 277 277 277 276 275 274 276
282 278 272 272 276 276 275 273 275 277 280 277 276 275 276 273 273 276 277 274 268 270 270 272 272 274 276 277 277 277 276 272 272 272 271 271 271 273 274 276 276 275 275 275
279 273 269 276 273 276 278 272 276 278 278 277 277 272 269 271 272 270 271 269 268 272 271 274 274 274 276 277 277 276 276 275 275 273 272 273 272 273 273 272 273 275 275 274
278 271 277 278 277 278 278 278 278 279 278 273 273 268 270 273 267 270 270 270 272 271 272 273 276 277 275 275 277 276 276 275 274 272 272 271 273 267 268 270 273 273 275 274

GFSNW_sfc_thetae_084.txt.gz
Theta_e
307 307 306 307 307 308 303 297 287 302 304 289 289 288 288 293 293 297 294 293 290 288 289 289 289 288 291 296 295 291 293 292 287 288 293 293 293 290 289 286 283 284 286 284
307 308 307 307 307 307 302 292 290 302 302 285 287 290 291 293 293 293 294 291 292 292 290 287 290 291 296 297 295 292 293 289 286 287 290 293 291 291 290 289 289 283 284 284
311 309 308 307 305 307 304 295 286 291 295 294 290 288 289 290 296 293 295 293 294 292 290 292 289 290 295 296 296 295 294 289 285 283 285 289 288 290 292 290 287 286 286 286
311 311 309 305 304 307 304 296 290 293 287 290 291 291 291 290 289 294 295 293 292 291 288 289 289 291 292 295 295 294 293 286 286 286 287 289 289 290 291 288 288 287 287 288
311 311 308 306 306 307 301 294 293 293 291 291 290 291 291 290 290 291 291 291 291 293 289 290 288 291 292 291 295 292 292 287 286 285 287 289 287 289 290 290 289 289 289 289
310 308 307 307 307 307 301 299 298 296 290 289 290 290 291 291 293 293 292 293 293 291 291 294 295 296 295 294 293 290 290 288 286 284 285 286 284 286 288 290 291 290 288 290
310 309 308 309 308 304 303 299 298 292 286 290 289 291 293 291 291 291 292 293 293 294 296 296 297 296 295 295 293 293 290 287 287 285 285 280 285 289 289 288 290 291 291 291
310 310 307 305 303 302 300 297 297 293 287 290 292 293 292 292 293 291 292 293 294 296 294 292 288 289 290 291 292 292 292 290 285 285 284 284 285 287 288 288 287 291 290 290
308 308 307 306 303 300 297 294 294 297 292 287 287 290 292 292 291 292 292 297 299 296 293 289 283 283 284 285 288 292 292 292 289 285 281 279 286 289 292 292 285 290 291 290
308 308 308 304 302 300 297 294 293 296 289 288 288 291 291 292 292 291 292 293 295 295 292 287 285 284 285 283 282 285 287 287 285 285 283 285 289 290 291 283 285 290 291 291
308 308 308 308 305 300 297 293 294 295 289 288 288 289 290 292 292 292 292 293 293 294 289 288 287 286 286 285 285 285 285 284 284 284 282 279 290 290 287 289 289 291 290 291
307 307 307 306 306 301 297 294 294 294 292 288 290 290 291 289 290 291 291 291 291 293 291 290 289 286 286 285 283 287 284 287 286 286 286 289 290 290 290 290 290 290 291 290
306 305 307 306 305 302 298 294 294 294 291 289 289 288 291 292 291 292 292 292 292 292 292 293 291 287 289 285 286 286 288 288 288 287 288 289 290 290 290 290 290 290 290 289
305 305 306 305 304 302 297 295 294 294 292 290 288 291 290 293 292 291 292 292 292 292 293 292 291 289 289 288 286 286 289 289 288 288 290 288 289 290 290 289 289 288 288 288
305 305 304 303 302 298 296 295 293 293 292 288 286 288 290 291 292 291 292 293 292 293 292 292 290 289 288 286 286 286 289 290 288 288 289 290 289 289 290 289 287 287 286 286
305 304 303 301 301 299 296 292 294 294 293 290 285 288 288 290 290 289 289 289 289 291 291 289 287 286 288 286 285 289 289 289 289 289 288 288 288 289 289 288 286 286 286 286
304 304 302 301 300 297 292 290 294 295 293 289 283 284 287 288 288 288 289 288 288 289 287 287 287 286 287 286 284 289 287 288 287 288 288 286 287 287 288 287 285 285 284 284
305 302 301 300 300 297 292 294 297 294 290 288 281 282 284 288 286 286 287 287 288 287 286 285 285 284 284 282 287 285 286 287 287 288 287 285 287 286 285 284 283 282 282 282
303 301 298 296 293 290 291 297 295 293 290 286 283 283 281 287 285 286 287 287 285 285 284 284 284 283 281 287 286 285 286 286 286 284 284 284 284 283 283 282 282 281 282 282
299 296 291 288 290 296 294 291 288 288 287 285 284 283 282 286 284 284 285 284 284 281 283 283 281 283 287 286 286 287 287 286 285 282 281 281 281 282 282 281 282 282 282 282
294 289 288 291 294 291 287 284 283 283 281 283 282 283 282 286 283 284 284 282 281 278 281 280 281 280 284 285 285 285 287 286 284 284 283 283 283 282 281 282 282 282 282 281
294 292 291 290 286 283 281 278 279 278 279 281 282 282 284 284 286 284 282 280 279 278 282 279 278 283 283 283 283 283 285 284 283 283 283 282 282 282 281 281 281 281 281 280
292 288 285 284 281 277 276 275 277 276 281 281 282 282 283 283 284 281 280 277 278 281 278 278 281 282 283 283 282 281 282 282 283 282 282 282 281 281 281 280 281 281 280 280
287 284 279 280 277 277 279 280 281 282 282 282 283 281 282 282 281 280 277 279 280 274 272 276 282 282 283 282 282 281 281 282 281 279 278 278 278 278 279 279 279 278 278 279
285 282 278 279 282 279 280 279 279 282 284 282 281 281 281 280 277 279 278 275 272 275 277 282 281 280 282 281 280 281 280 279 278 277 276 274 275 276 277 278 277 277 277 277
284 280 277 277 277 277 279 279 280 283 283 282 283 280 278 279 278 275 275 274 274 281 280 281 280 280 280 280 280 280 279 278 278 277 276 275 274 275 275 275 276 276 276 276
283 279 280 280 279 281 282 281 281 284 283 281 280 277 279 277 275 274 278 276 283 281 279 280 281 280 280 279 278 278 277 277 276 275 275 275 274 273 274 273 274 274 275 275